Location: Asheville, NC
(35.6000°N, 82.5500°W)
Time: 09:42:11
(UTC-04:00)

PCSat - Pass Details

Date: 17 March 2018
Orbit: 784 x 796 km, 67.0° (Epoch: 24 June)

Event Time Altitude Azimuth Distance (km) Brightness Sun altitude
Rises 21:06:12 0° 183° (S) 3,253 12.7 -18.3°
Reaches altitude 10° 21:08:45 10° 175° (S) 2,329 11.8 -18.8°
Enters shadow 21:12:46 34° 130° (SE) 1,260 10.1 -19.6°
